When you browse on this site, cookies collect data to enhance your experience and personalize the content and advertising you see.
Visit our Privacy Policy to learn more. By continuing to use the site, you agree to this use of cookies and data.
  • In Norway
  • List of Countries
  • For 7 days
  • Water Temperature
  • Satellite Maps
  • Weather Map
  • Weather Widgets
  • user-avatar
    Login

    Hourly Weather Townsville

    Today, 22 March, Friday

    Time Temperature Precipitation Wind Pressure Humidity
    00:00 +26°C° 0.3 mm 3 mps 752 mmHg 90%
    01:00 +26°C° 0.3 mm 3 mps 752 mmHg 90%
    02:00 +26°C° 0.4 mm 3 mps 752 mmHg 90%
    03:00 +26°C° 0.4 mm 3 mps 752 mmHg 89%
    04:00 +26°C° 0 mm 4 mps 751 mmHg 89%
    05:00 +26°C° 0.4 mm 4 mps 751 mmHg 89%
    06:00 +26°C° 0.4 mm 4 mps 752 mmHg 90%
    07:00 +26°C° 0.4 mm 4 mps 752 mmHg 90%
    08:00 +26°C° 0.8 mm 4 mps 752 mmHg 88%
    09:00 +27°C° 0.8 mm 4 mps 752 mmHg 87%
    10:00 +27°C° 0.8 mm 3 mps 752 mmHg 86%
    11:00 +27°C° 1.1 mm 3 mps 752 mmHg 85%
    12:00 +27°C° 1.1 mm 3 mps 752 mmHg 85%
    13:00 +27°C° 1.1 mm 3 mps 752 mmHg 84%
    14:00 +27°C° 0.6 mm 3 mps 752 mmHg 83%
    15:00 +28°C° 0.6 mm 3 mps 751 mmHg 83%
    16:00 +28°C° 0.6 mm 3 mps 751 mmHg 82%
    17:00 +27°C° 0.3 mm 3 mps 751 mmHg 84%
    18:00 +27°C° 0.3 mm 3 mps 752 mmHg 85%
    19:00 +26°C° 0.3 mm 2 mps 752 mmHg 87%
    20:00 +26°C° 0.3 mm 3 mps 752 mmHg 88%
    21:00 +26°C° 0.3 mm 3 mps 752 mmHg 88%
    22:00 +26°C° 0.3 mm 3 mps 753 mmHg 89%
    23:00 +26°C° 0.5 mm 3 mps 753 mmHg 89%

    Tomorrow, 23 March, Saturday

    Time Temperature Precipitation Wind Pressure Humidity
    00:00 +26°C° 0.5 mm 3 mps 753 mmHg 90%
    01:00 +26°C° 0.5 mm 3 mps 752 mmHg 90%
    02:00 +26°C° 0.2 mm 3 mps 752 mmHg 90%
    03:00 +26°C° 0.2 mm 2 mps 752 mmHg 90%
    04:00 +26°C° 0.2 mm 2 mps 751 mmHg 90%
    05:00 +26°C° 0.1 mm 2 mps 751 mmHg 90%
    06:00 +26°C° 0.1 mm 2 mps 752 mmHg 89%
    07:00 +26°C° 0.1 mm 2 mps 752 mmHg 89%
    08:00 +27°C° 0 mm 3 mps 752 mmHg 85%
    09:00 +28°C° 0 mm 3 mps 753 mmHg 81%
    10:00 +29°C° 0 mm 4 mps 753 mmHg 78%
    11:00 +30°C° 0.1 mm 4 mps 753 mmHg 74%
    12:00 +30°C° 0.1 mm 4 mps 752 mmHg 70%
    13:00 +32°C° 0.1 mm 4 mps 752 mmHg 66%
    14:00 +32°C° 0.1 mm 4 mps 752 mmHg 67%
    15:00 +30°C° 0.1 mm 3 mps 751 mmHg 69%
    16:00 +30°C° 0.1 mm 3 mps 751 mmHg 71%
    17:00 +29°C° 0 mm 3 mps 751 mmHg 74%
    18:00 +28°C° 0 mm 3 mps 751 mmHg 78%
    19:00 +27°C° 0 mm 2 mps 752 mmHg 81%
    20:00 +27°C° 0 mm 2 mps 752 mmHg 82%
    21:00 +27°C° 0 mm 2 mps 753 mmHg 83%
    22:00 +27°C° 0 mm 2 mps 753 mmHg 84%
    23:00 +27°C° 0 mm 2 mps 753 mmHg 85%

    Day after tomorrow, 24 March, Sunday

    Time Temperature Precipitation Wind Pressure Humidity
    00:00 +27°C° 0 mm 2 mps 753 mmHg 85%
    01:00 +27°C° 0 mm 2 mps 752 mmHg 86%
    02:00 +27°C° 0 mm 2 mps 752 mmHg 87%
    03:00 +26°C° 0 mm 2 mps 752 mmHg 87%
    04:00 +26°C° 0 mm 2 mps 752 mmHg 88%
    05:00 +27°C° 0 mm 2 mps 752 mmHg 88%
    06:00 +27°C° 0 mm 3 mps 752 mmHg 88%
    07:00 +27°C° 0 mm 3 mps 753 mmHg 88%
    08:00 +28°C° 0.1 mm 3 mps 753 mmHg 82%
    09:00 +29°C° 0.1 mm 3 mps 753 mmHg 77%
    10:00 +32°C° 0.1 mm 4 mps 754 mmHg 71%
    11:00 +32°C° 0.1 mm 4 mps 753 mmHg 69%
    12:00 +33°C° 0.1 mm 4 mps 753 mmHg 68%
    13:00 +33°C° 0.1 mm 4 mps 752 mmHg 66%
    14:00 +33°C° 0 mm 4 mps 752 mmHg 68%
    15:00 +32°C° 0 mm 4 mps 751 mmHg 69%
    16:00 +32°C° 0 mm 4 mps 751 mmHg 70%
    17:00 +30°C° 0.1 mm 4 mps 751 mmHg 75%
    18:00 +29°C° 0.1 mm 4 mps 752 mmHg 80%
    19:00 +28°C° 0.1 mm 3 mps 752 mmHg 85%
    20:00 +28°C° 0.3 mm 3 mps 753 mmHg 86%
    21:00 +27°C° 0.3 mm 3 mps 753 mmHg 88%
    22:00 +27°C° 0.3 mm 3 mps 754 mmHg 89%
    23:00 +27°C° 0.3 mm 3 mps 753 mmHg 89%

    25 March, Monday

    Time Temperature Precipitation Wind Pressure Humidity
    00:00 +27°C° 0.3 mm 2 mps 753 mmHg 89%
    01:00 +27°C° 0.3 mm 2 mps 753 mmHg 90%
    02:00 +27°C° 0.1 mm 2 mps 753 mmHg 90%
    03:00 +27°C° 0.1 mm 2 mps 752 mmHg 90%
    04:00 +27°C° 0.1 mm 2 mps 752 mmHg 91%
    05:00 +27°C° 0.1 mm 2 mps 752 mmHg 90%
    06:00 +27°C° 0.1 mm 2 mps 753 mmHg 90%
    07:00 +27°C° 0.1 mm 2 mps 753 mmHg 89%
    08:00 +28°C° 0.2 mm 2 mps 753 mmHg 84%
    09:00 +29°C° 0.2 mm 3 mps 754 mmHg 78%
    10:00 +31°C° 0.2 mm 3 mps 754 mmHg 73%
    11:00 +32°C° 0.2 mm 4 mps 753 mmHg 71%
    12:00 +33°C° 0.2 mm 4 mps 753 mmHg 69%
    13:00 +33°C° 0.2 mm 4 mps 752 mmHg 68%
    14:00 +33°C° 0.1 mm 4 mps 752 mmHg 69%
    15:00 +32°C° 0.1 mm 4 mps 751 mmHg 71%
    16:00 +32°C° 0.1 mm 4 mps 751 mmHg 73%
    17:00 +30°C° 0.1 mm 4 mps 751 mmHg 77%
    18:00 +29°C° 0.1 mm 3 mps 751 mmHg 82%
    19:00 +28°C° 0.1 mm 3 mps 752 mmHg 87%
    20:00 +28°C° 0.1 mm 3 mps 752 mmHg 88%
    21:00 +28°C° 0.1 mm 3 mps 753 mmHg 89%
    22:00 +28°C° 0.1 mm 3 mps 754 mmHg 90%
    23:00 +27°C° 0.3 mm 2 mps 753 mmHg 90%

    26 March, Tuesday

    Time Temperature Precipitation Wind Pressure Humidity
    00:00 +27°C° 0.3 mm 2 mps 753 mmHg 90%
    01:00 +27°C° 0.3 mm 2 mps 753 mmHg 90%
    02:00 +27°C° 0.1 mm 2 mps 752 mmHg 90%
    03:00 +27°C° 0.1 mm 2 mps 752 mmHg 91%
    04:00 +26°C° 0.1 mm 1 mps 752 mmHg 91%
    05:00 +27°C° 0 mm 1 mps 752 mmHg 90%
    06:00 +27°C° 0 mm 1 mps 752 mmHg 89%
    07:00 +27°C° 0 mm 1 mps 753 mmHg 88%
    08:00 +28°C° 0 mm 1 mps 753 mmHg 83%
    09:00 +30°C° 0 mm 2 mps 753 mmHg 77%
    10:00 +31°C° 0 mm 2 mps 753 mmHg 72%
    11:00 +31°C° 0 mm 3 mps 752 mmHg 70%
    12:00 +33°C° 0 mm 3 mps 752 mmHg 68%
    13:00 +33°C° 0 mm 3 mps 751 mmHg 66%
    14:00 +33°C° 0 mm 3 mps 751 mmHg 67%
    15:00 +31°C° 0 mm 3 mps 750 mmHg 69%
    16:00 +31°C° 0 mm 3 mps 750 mmHg 70%
    17:00 +30°C° 0 mm 3 mps 750 mmHg 75%
    18:00 +29°C° 0 mm 3 mps 750 mmHg 80%
    19:00 +28°C° 0 mm 2 mps 751 mmHg 85%
    20:00 +28°C° 0 mm 3 mps 751 mmHg 87%
    21:00 +28°C° 0 mm 3 mps 752 mmHg 88%
    22:00 +27°C° 0 mm 3 mps 752 mmHg 89%
    23:00 +27°C° 0 mm 3 mps 752 mmHg 89%

    27 March, Wednesday

    Time Temperature Precipitation Wind Pressure Humidity
    00:00 +27°C° 0 mm 3 mps 751 mmHg 90%
    01:00 +27°C° 0 mm 3 mps 751 mmHg 90%
    02:00 +27°C° 0 mm 3 mps 751 mmHg 90%
    03:00 +27°C° 0 mm 3 mps 750 mmHg 90%
    04:00 +27°C° 0 mm 3 mps 750 mmHg 90%
    05:00 +27°C° 0.1 mm 2 mps 751 mmHg 90%
    06:00 +27°C° 0.1 mm 2 mps 751 mmHg 90%
    07:00 +27°C° 0.1 mm 2 mps 751 mmHg 89%
    08:00 +28°C° 0.2 mm 3 mps 751 mmHg 84%
    09:00 +29°C° 0.2 mm 3 mps 751 mmHg 79%
    10:00 +30°C° 0.2 mm 4 mps 751 mmHg 74%
    11:00 +32°C° 0.1 mm 4 mps 751 mmHg 72%
    12:00 +32°C° 0.1 mm 4 mps 750 mmHg 71%
    13:00 +33°C° 0.1 mm 5 mps 750 mmHg 69%
    14:00 +32°C° 0 mm 5 mps 749 mmHg 71%
    15:00 +32°C° 0 mm 5 mps 749 mmHg 72%
    16:00 +32°C° 0 mm 5 mps 749 mmHg 74%
    17:00 +30°C° 0.1 mm 4 mps 749 mmHg 78%
    18:00 +29°C° 0.1 mm 4 mps 750 mmHg 82%
    19:00 +28°C° 0.1 mm 3 mps 750 mmHg 86%
    20:00 +28°C° 0.3 mm 3 mps 751 mmHg 87%
    21:00 +28°C° 0.3 mm 4 mps 751 mmHg 88%
    22:00 +28°C° 0.3 mm 4 mps 751 mmHg 89%
    23:00 +27°C° 1.1 mm 4 mps 751 mmHg 89%
    Show more